EW5945 Weather Reports


Display with metric or nautical units.
time (UTC)temp
F
wind
direction
speed
MPH
gust
MPH
rain 1hr
in
rain 24hr
in
rain mn
in
humidity
%
barometer
mb
20260509104729 57 307 0.0 0.0 0.00 0.00 0.00 98 1013.5
20260509104229 56 278 0.0 0.0 0.00 0.00 0.00 98 1013.5
20260509103729 56 278 0.0 0.0 0.00 0.00 0.00 98 1013.2
20260509103227 56 277 0.0 0.0 0.00 0.00 0.00 98 1013.5
20260509102727 56 269 0.0 0.0 0.00 0.00 0.00 98 1013.5
20260509102228 56 269 0.0 0.0 0.00 0.00 0.00 98 1013.2
20260509101729 56 273 0.0 0.0 0.00 0.00 0.00 98 1013.2
20260509101229 57 271 0.0 0.0 0.00 0.00 0.00 98 1013.2
20260509100728 56 268 0.0 0.0 0.00 0.00 0.00 98 1013.2
20260509100229 56 268 0.0 0.0 0.00 0.00 0.00 98 1013.2
20260509095728 57 268 0.0 0.0 0.00 0.00 0.00 98 1013.2
20260509095229 56 297 0.0 0.0 0.00 0.00 0.00 98 1013.2
20260509094729 57 301 0.0 0.0 0.00 0.00 0.00 98 1013.5
20260509094227 57 254 0.0 0.0 0.00 0.00 0.00 98 1013.2
20260509093227 57 250 0.0 0.0 0.00 0.00 0.00 98 1013.5
20260509092728 57 250 0.0 0.0 0.00 0.00 0.00 98 1013.5
20260509092227 57 250 0.0 0.0 0.00 0.00 0.00 98 1013.5
20260509091730 57 255 0.0 0.0 0.00 0.00 0.00 98 1013.5
20260509091227 57 255 0.0 0.0 0.00 0.00 0.00 98 1013.5
20260509090728 57 255 0.0 0.0 0.00 0.00 0.00 98 1013.9
20260509090229 57 255 0.0 0.0 0.00 0.00 0.00 98 1013.9
20260509085727 57 251 0.0 0.0 0.00 0.00 0.00 98 1013.9
20260509085227 57 250 0.0 0.0 0.00 0.00 0.00 98 1013.9
20260509084728 57 268 0.0 0.0 0.00 0.00 0.00 98 1013.9
20260509084229 57 268 0.0 0.0 0.00 0.00 0.00 98 1013.9
20260509083727 57 271 0.0 0.0 0.00 0.00 0.00 97 1013.9
20260509082729 57 282 0.0 0.0 0.00 0.00 0.00 97 1013.9
20260509082230 57 285 0.0 0.0 0.00 0.00 0.00 97 1013.9
20260509081727 57 289 0.0 0.0 0.00 0.00 0.00 97 1013.9
20260509081229 57 293 0.0 0.0 0.00 0.00 0.00 97 1014.2
20260509080728 57 278 0.0 0.0 0.00 0.00 0.00 97 1013.9
20260509080229 57 276 0.0 0.0 0.00 0.00 0.00 97 1014.2
20260509075727 57 276 0.0 0.0 0.00 0.00 0.00 97 1014.2
20260509075227 57 296 0.0 0.0 0.00 0.00 0.00 97 1014.2
20260509074728 57 250 0.0 0.0 0.00 0.00 0.00 97 1014.2
20260509074227 57 250 0.0 0.0 0.00 0.00 0.00 97 1014.2
20260509073730 57 249 0.0 0.0 0.00 0.00 0.00 97 1014.2
20260509073229 57 252 0.0 0.0 0.00 0.00 0.00 97 1014.2
20260509072727 57 221 0.0 0.0 0.00 0.00 0.00 97 1014.6
20260509072229 57 259 0.0 0.0 0.00 0.00 0.00 97 1014.6
20260509071728 57 256 0.0 0.0 0.00 0.00 0.00 97 1014.6
20260509071229 57 256 0.0 0.0 0.00 0.00 0.00 97 1014.9
20260509070728 57 258 0.0 0.0 0.00 0.00 0.00 97 1014.9
20260509070229 57 258 0.0 0.0 0.00 0.00 0.00 97 1014.9
20260509065728 57 258 0.0 0.0 0.00 0.00 0.00 97 1014.9
20260509065227 57 257 0.0 0.0 0.00 0.00 0.00 96 1014.9
20260509064728 57 276 0.0 0.0 0.00 0.00 0.00 96 1014.9
20260509064228 57 293 0.0 2.0 0.00 0.00 0.00 96 1014.9
20260509063729 57 281 0.0 0.0 0.00 0.00 0.00 96 1014.9
20260509063228 57 255 0.0 0.0 0.00 0.00 0.00 96 1014.9
20260509062727 57 255 0.0 0.0 0.00 0.00 0.00 96 1014.9
20260509062227 57 240 0.0 0.0 0.00 0.00 0.00 96 1014.9
20260509061727 57 282 0.0 0.0 0.00 0.00 0.00 96 1014.9
20260509061227 57 282 0.0 2.0 0.00 0.00 0.00 96 1014.9
20260509060728 57 299 0.0 2.0 0.00 0.00 0.00 96 1014.9
20260509060229 57 269 0.0 0.0 0.00 0.00 0.00 96 1015.2
20260509055727 58 268 0.0 0.0 0.00 0.00 0.00 96 1015.2
20260509055227 58 268 0.0 0.0 0.00 0.00 0.00 95 1015.2
20260509054727 58 268 0.0 0.0 0.00 0.00 0.00 95 1015.2
20260509053727 58 268 0.0 0.0 0.00 0.00 0.00 95 1015.6
20260509053228 58 270 0.0 0.0 0.00 0.00 0.00 95 1015.6
20260509052727 58 270 0.0 0.0 0.00 0.00 0.00 95 1015.6
20260509052228 58 268 0.0 0.0 0.00 0.00 0.00 95 1015.6
20260509051728 58 270 0.0 0.0 0.00 0.00 0.00 95 1015.9
20260509051227 58 271 0.0 0.0 0.00 0.00 0.00 95 1015.6
20260509050727 58 271 0.0 0.0 0.00 0.00 0.00 95 1015.6
20260509050229 58 274 0.0 0.0 0.00 0.00 0.00 94 1015.6
20260509045729 58 268 0.0 0.0 0.00 0.00 0.00 94 1015.6
20260509045230 58 268 0.0 0.0 0.00 0.00 0.00 94 1015.6
20260509044727 58 287 0.0 0.0 0.00 0.00 0.00 94 1015.6
20260509044229 58 282 0.0 0.0 0.00 0.00 0.00 94 1015.6
20260509043728 58 285 0.0 0.0 0.00 0.00 0.00 94 1015.6
20260509043227 58 229 0.0 0.0 0.00 0.00 0.00 93 1015.6
20260509042729 58 222 0.0 0.0 0.00 0.00 0.00 93 1015.6
20260509042227 58 217 0.0 0.0 0.00 0.00 0.00 93 1015.6
20260509041729 58 216 0.0 0.0 0.00 0.00 0.00 93 1015.6
20260509041228 58 215 0.0 0.0 0.00 0.00 0.00 92 1015.6
20260509040728 58 216 0.0 0.0 0.00 0.00 0.00 92 1015.9
20260509040227 59 219 0.0 0.0 0.00 0.00 0.00 92 1015.9
20260509035728 59 219 0.0 0.0 0.00 0.00 0.00 92 1015.9
20260509035228 59 215 0.0 0.0 0.00 0.00 0.00 92 1015.9
20260509034727 59 218 0.0 0.0 0.00 0.00 0.00 91 1016.3
20260509034227 59 219 0.0 0.0 0.00 0.00 0.00 91 1016.3
20260509033728 59 215 0.0 0.0 0.00 0.00 0.00 91 1016.3
20260509033228 59 215 0.0 0.0 0.00 0.00 0.00 91 1016.3
20260509032728 59 219 0.0 2.0 0.00 0.00 0.00 91 1016.3
20260509032227 59 222 0.0 2.0 0.00 0.00 0.00 90 1016.3
20260509031727 60 205 0.0 0.0 0.00 0.00 0.00 90 1016.3
20260509031228 60 201 0.0 0.0 0.00 0.00 0.00 90 1016.3
20260509030728 60 207 0.0 0.0 0.00 0.00 0.00 89 1016.3
20260509030229 60 207 0.0 0.0 0.00 0.00 0.00 89 1016.3
20260509025729 60 203 0.0 0.0 0.00 0.00 0.00 89 1016.3
20260509025235 60 205 0.0 0.0 0.00 0.00 0.00 89 1016.3
20260509024728 60 207 0.0 0.0 0.00 0.00 0.00 88 1016.3
20260509024229 60 189 0.0 0.0 0.00 0.00 0.00 88 1016.3
20260509023727 60 189 0.0 0.0 0.00 0.00 0.00 88 1016.3
20260509023229 60 189 0.0 0.0 0.00 0.00 0.00 88 1016.3
20260509022729 60 188 0.0 0.0 0.00 0.00 0.00 88 1016.6
20260509022228 60 187 0.0 0.0 0.00 0.00 0.00 87 1016.6
20260509021729 61 187 0.0 0.0 0.00 0.00 0.00 87 1016.6
20260509021227 61 189 0.0 0.0 0.00 0.00 0.00 87 1016.6
20260509020729 61 187 0.0 0.0 0.00 0.00 0.00 86 1016.6
20260509020227 61 188 0.0 0.0 0.00 0.00 0.00 86 1016.3
20260509015727 61 188 0.0 0.0 0.00 0.00 0.00 85 1016.3
20260509015228 61 188 0.0 0.0 0.00 0.00 0.00 85 1016.3
20260509014728 61 188 0.0 2.0 0.00 0.00 0.00 85 1016.3
20260509014229 61 214 0.0 0.0 0.00 0.00 0.00 85 1016.3
20260509013727 61 214 0.0 0.0 0.00 0.00 0.00 84 1016.3
20260509013229 61 214 0.0 0.0 0.00 0.00 0.00 84 1016.3
20260509012728 62 216 0.0 0.0 0.00 0.00 0.00 84 1015.9
20260509012228 62 184 0.0 2.0 0.00 0.00 0.00 84 1015.9
20260509011728 62 201 0.0 2.0 0.00 0.00 0.00 83 1015.9
20260509011228 62 201 0.0 0.0 0.00 0.00 0.00 83 1015.9
20260509010728 62 190 0.0 2.0 0.00 0.00 0.00 83 1015.6
20260509010228 62 193 0.0 2.0 0.00 0.00 0.00 82 1015.6
20260509005727 62 189 0.0 2.0 0.00 0.00 0.00 82 1015.6
20260509005228 62 186 0.0 0.0 0.00 0.00 0.00 81 1015.6
20260509004728 62 190 0.0 2.0 0.00 0.00 0.00 81 1015.6
20260509004228 62 147 0.0 2.0 0.00 0.00 0.00 80 1015.6
20260509003728 63 198 0.0 2.0 0.00 0.00 0.00 80 1015.6
20260509003228 63 198 0.0 4.0 0.00 0.00 0.00 80 1015.6
20260509002727 63 192 0.0 2.0 0.00 0.00 0.00 79 1015.9
20260509002229 63 170 0.0 2.0 0.00 0.00 0.00 79 1015.9
20260509001727 63 180 0.0 2.0 0.00 0.00 0.00 78 1015.9
20260509001228 64 163 0.0 4.0 0.00 0.00 0.00 77 1015.9
20260509000727 64 158 0.0 2.0 0.00 0.00 0.00 77 1015.6
20260509000228 64 189 0.0 4.0 0.00 0.00 0.00 76 1015.6
20260508235729 64 229 0.0 2.0 0.00 0.00 0.00 75 1015.6
20260508235228 64 208 0.0 5.0 0.00 0.00 0.00 74 1015.6
20260508234728 64 250 0.0 4.0 0.00 0.00 0.00 73 1015.6
20260508234228 64 195 0.0 4.0 0.00 0.00 0.00 70 1015.6
20260508233727 65 215 0.0 4.0 0.00 0.00 0.00 69 1015.6
20260508233230 65 223 0.0 4.0 0.00 0.00 0.00 67 1015.6
20260508232729 65 177 0.0 5.0 0.00 0.00 0.00 66 1015.2
20260508232228 66 208 0.0 4.0 0.00 0.00 0.00 64 1015.2
20260508231728 66 189 0.0 4.0 0.00 0.00 0.00 63 1015.2
20260508231228 66 201 0.0 4.0 0.00 0.00 0.00 62 1015.6
20260508230728 67 203 0.0 5.0 0.00 0.00 0.00 62 1015.2
20260508230228 67 190 0.0 7.0 0.00 0.00 0.00 63 1015.2
20260508225728 67 175 0.0 2.0 0.00 0.00 0.00 62 1015.2
20260508225229 68 184 2.0 13.0 0.00 0.00 0.00 60 1015.2
20260508224729 68 217 4.0 11.0 0.00 0.00 0.00 61 1014.9
20260508224230 68 207 2.0 9.0 0.00 0.00 0.00 61 1015.2
20260508223727 68 170 2.0 5.0 0.00 0.00 0.00 61 1015.2
20260508223228 68 213 2.0 7.0 0.00 0.00 0.00 62 1015.2
20260508222728 68 193 2.0 5.0 0.00 0.00 0.00 65 1015.2
20260508222229 68 237 0.0 4.0 0.00 0.00 0.00 63 1015.2
20260508221727 69 200 2.0 9.0 0.00 0.00 0.00 63 1014.9
20260508221230 69 206 2.0 7.0 0.00 0.00 0.00 64 1014.9
20260508220731 69 209 2.0 13.0 0.00 0.00 0.00 64 1014.9
20260508220230 69 206 4.0 11.0 0.00 0.00 0.00 64 1014.9
20260508215728 69 219 7.0 14.0 0.00 0.00 0.00 63 1014.9
20260508215227 70 214 4.0 14.0 0.00 0.00 0.00 63 1014.9
20260508214730 69 247 7.0 16.0 0.00 0.00 0.00 62 1014.9
20260508214228 69 195 2.0 9.0 0.00 0.00 0.00 62 1014.9
20260508213727 70 132 2.0 5.0 0.00 0.00 0.00 63 1014.9
20260508213229 71 98 4.0 9.0 0.00 0.00 0.00 61 1014.9
20260508212729 70 218 2.0 7.0 0.00 0.00 0.00 62 1014.9
20260508212227 70 161 4.0 5.0 0.00 0.00 0.00 63 1014.9
20260508211729 71 256 2.0 5.0 0.00 0.00 0.00 59 1014.9
20260508211228 69 168 2.0 7.0 0.00 0.00 0.00 58 1014.9
20260508210728 69 137 2.0 5.0 0.00 0.00 0.00 59 1014.9
20260508210229 70 184 4.0 5.0 0.00 0.00 0.00 59 1014.9
20260508205728 70 149 2.0 5.0 0.00 0.00 0.00 57 1015.2
20260508205228 70 197 7.0 14.0 0.00 0.00 0.00 56 1015.2
20260508204728 72 223 4.0 7.0 0.00 0.00 0.00 54 1015.2
20260508204229 73 229 7.0 11.0 0.00 0.00 0.00 54 1014.9
20260508203728 73 193 7.0 14.0 0.00 0.00 0.00 57 1014.9
20260508203228 73 207 11.0 16.0 0.00 0.00 0.00 51 1015.2
20260508202728 74 205 9.0 14.0 0.00 0.00 0.00 53 1014.9
20260508202227 73 161 4.0 13.0 0.00 0.00 0.00 54 1014.9
20260508201729 74 202 7.0 14.0 0.00 0.00 0.00 51 1014.9
20260508201229 73 217 2.0 7.0 0.00 0.00 0.00 52 1014.9
20260508200728 73 151 2.0 7.0 0.00 0.00 0.00 52 1014.9
20260508200229 73 99 2.0 5.0 0.00 0.00 0.00 52 1014.9
20260508195729 73 213 7.0 13.0 0.00 0.00 0.00 53 1015.2
20260508195228 73 229 0.0 5.0 0.00 0.00 0.00 52 1015.2
20260508194730 74 189 7.0 13.0 0.00 0.00 0.00 52 1015.2
20260508194230 74 169 4.0 11.0 0.00 0.00 0.00 50 1015.2
20260508193730 74 199 2.0 9.0 0.00 0.00 0.00 55 1015.2
20260508193227 73 215 9.0 16.0 0.00 0.00 0.00 53 1015.2
20260508192728 74 192 4.0 13.0 0.00 0.00 0.00 51 1015.2
20260508192230 73 164 2.0 5.0 0.00 0.00 0.00 54 1015.6
20260508191729 72 190 2.0 5.0 0.00 0.00 0.00 52 1015.6
20260508191227 71 204 2.0 7.0 0.00 0.00 0.00 57 1015.6
20260508190727 74 214 2.0 9.0 0.00 0.00 0.00 53 1015.6
20260508190228 74 221 2.0 7.0 0.00 0.00 0.00 53 1015.6
20260508185248 71 120 0.0 5.0 0.00 0.00 0.00 61 1015.9
20260508184727 69 230 0.0 4.0 0.00 0.00 0.00 63 1015.9
20260508184229 70 147 2.0 5.0 0.00 0.00 0.00 59 1015.9
20260508183728 70 187 2.0 5.0 0.00 0.00 0.00 59 1015.9
20260508183227 72 191 2.0 5.0 0.00 0.00 0.00 59 1015.9
20260508182729 71 56 4.0 7.0 0.00 0.00 0.00 57 1016.3
20260508182227 73 314 4.0 5.0 0.00 0.00 0.00 60 1016.3
20260508181728 71 198 2.0 5.0 0.00 0.00 0.00 57 1016.3
20260508180743 71 21 4.0 9.0 0.00 0.00 0.00 60 1016.3
20260508180230 71 219 9.0 13.0 0.00 0.00 0.00 59 1016.3
20260508175727 71 240 2.0 9.0 0.00 0.00 0.00 56 1016.3
20260508175230 70 213 2.0 4.0 0.00 0.00 0.00 61 1016.3
20260508174727 71 217 2.0 5.0 0.00 0.00 0.00 59 1016.3
20260508174233 71 152 0.0 4.0 0.00 0.00 0.00 61 1016.3
20260508173730 69 250 2.0 9.0 0.00 0.00 0.00 62 1016.3
20260508173228 72 32 2.0 4.0 0.00 0.00 0.00 59 1016.3
20260508172730 71 14 7.0 11.0 0.00 0.00 0.00 56 1016.6
20260508172229 71 174 2.0 7.0 0.00 0.00 0.00 59 1016.6
20260508171729 70 213 2.0 5.0 0.00 0.00 0.00 58 1016.6
20260508171228 69 198 4.0 9.0 0.00 0.00 0.00 60 1016.9
20260508170727 68 168 4.0 7.0 0.00 0.00 0.00 58 1016.9
20260508170228 69 87 2.0 7.0 0.00 0.00 0.00 63 1016.9
20260508165728 70 113 4.0 9.0 0.00 0.00 0.00 62 1016.9
20260508165229 69 122 4.0 11.0 0.00 0.00 0.00 61 1016.9
20260508164730 68 21 2.0 7.0 0.00 0.00 0.00 64 1016.9
20260508164228 68 150 4.0 9.0 0.00 0.00 0.00 65 1016.9
20260508163728 68 86 4.0 5.0 0.00 0.00 0.00 61 1016.9
20260508163228 69 329 9.0 13.0 0.00 0.00 0.00 63 1017.3
20260508162728 68 170 4.0 9.0 0.00 0.00 0.00 65 1016.9
20260508162229 68 40 7.0 14.0 0.00 0.00 0.00 69 1016.9
20260508161728 67 46 4.0 9.0 0.00 0.00 0.00 67 1016.9
20260508161230 67 26 4.0 9.0 0.00 0.00 0.00 67 1016.9
20260508160730 68 38 7.0 14.0 0.00 0.00 0.00 69 1016.9
20260508160231 67 180 4.0 9.0 0.00 0.00 0.00 68 1017.3
20260508155729 67 155 4.0 9.0 0.00 0.00 0.00 69 1017.3
20260508155230 67 224 4.0 9.0 0.00 0.00 0.00 70 1017.3
20260508154728 66 251 9.0 11.0 0.00 0.00 0.00 69 1017.3
20260508154231 66 329 9.0 14.0 0.00 0.00 0.00 69 1017.3
20260508153729 66 45 4.0 11.0 0.00 0.00 0.00 69 1017.3
20260508153228 66 245 7.0 11.0 0.00 0.00 0.00 74 1017.6
20260508152729 65 349 7.0 13.0 0.00 0.00 0.00 73 1017.3
20260508152230 65 13 7.0 11.0 0.00 0.00 0.00 76 1017.3
20260508151728 64 319 9.0 11.0 0.00 0.00 0.00 76 1017.3
20260508151227 64 36 9.0 14.0 0.00 0.00 0.00 76 1017.3
20260508150729 63 180 4.0 9.0 0.00 0.00 0.00 79 1017.3
20260508150228 63 70 4.0 13.0 0.00 0.00 0.00 78 1017.3
20260508145730 62 25 11.0 18.0 0.00 0.00 0.00 78 1017.3
20260508145229 63 32 9.0 18.0 0.00 0.00 0.00 77 1017.3
20260508144730 62 139 4.0 14.0 0.00 0.00 0.00 80 1017.3
20260508143753 61 145 9.0 16.0 0.00 0.00 0.00 82 1017.3
20260508143247 61 95 7.0 14.0 0.00 0.00 0.00 84 1017.3
20260508142729 61 135 9.0 13.0 0.00 0.00 0.00 84 1017.3
20260508142229 61 35 9.0 16.0 0.00 0.00 0.00 83 1016.9
20260508141731 61 77 7.0 16.0 0.00 0.00 0.00 85 1017.3
20260508141228 60 359 7.0 11.0 0.00 0.00 0.00 86 1016.9
20260508140730 60 19 4.0 9.0 0.00 0.00 0.00 88 1016.9
20260508140231 59 53 4.0 7.0 0.00 0.00 0.00 88 1016.9
20260508135727 59 6 4.0 9.0 0.00 0.00 0.00 88 1016.9
20260508135228 58 60 11.0 16.0 0.00 0.00 0.00 88 1016.9
20260508134729 58 52 7.0 11.0 0.00 0.00 0.00 89 1016.9
20260508134229 58 344 7.0 11.0 0.00 0.00 0.00 89 1016.9
20260508133728 58 346 7.0 11.0 0.00 0.00 0.00 89 1016.9
20260508133228 58 35 9.0 14.0 0.00 0.00 0.00 89 1016.9
20260508132728 58 80 9.0 11.0 0.00 0.00 0.00 91 1016.9
20260508132228 57 139 4.0 7.0 0.00 0.00 0.00 93 1016.9
20260508131729 56 357 2.0 9.0 0.00 0.00 0.00 94 1016.9
20260508131229 56 41 2.0 5.0 0.00 0.00 0.00 94 1016.9
20260508130728 55 56 7.0 13.0 0.00 0.00 0.00 95 1016.9
20260508130229 55 30 7.0 13.0 0.00 0.00 0.00 95 1016.9
20260508125251 54 48 7.0 11.0 0.00 0.00 0.00 96 1016.9
20260508124728 54 32 4.0 11.0 0.00 0.00 0.00 97 1016.9
20260508124229 54 60 4.0 9.0 0.00 0.00 0.00 97 1016.6
20260508123730 54 76 4.0 7.0 0.00 0.00 0.00 97 1016.6
20260508123228 54 55 2.0 5.0 0.00 0.00 0.00 97 1016.6
20260508122728 54 29 4.0 11.0 0.00 0.00 0.00 98 1016.6
20260508122229 54 52 4.0 11.0 0.00 0.00 0.00 98 1016.6
20260508121729 53 288 2.0 7.0 0.00 0.00 0.00 98 1016.6
20260508121228 53 124 7.0 9.0 0.00 0.00 0.00 98 1016.3
20260508120727 53 354 7.0 11.0 0.00 0.00 0.00 98 1016.3
20260508120229 53 86 2.0 5.0 0.00 0.00 0.00 98 1016.6
20260508115729 53 252 2.0 5.0 0.00 0.00 0.00 98 1016.3
20260508115227 53 74 7.0 11.0 0.00 0.00 0.00 98 1016.3
20260508114728 53 37 7.0 13.0 0.00 0.00 0.00 99 1016.3
20260508114227 53 40 4.0 13.0 0.00 0.00 0.00 99 1015.9
20260508113230 53 66 7.0 13.0 0.00 0.00 0.00 99 1015.9
20260508112728 53 38 4.0 9.0 0.00 0.00 0.00 99 1015.9
20260508112230 53 300 4.0 7.0 0.00 0.00 0.00 99 1015.9
20260508111728 53 299 2.0 5.0 0.00 0.00 0.00 99 1015.9
20260508111230 53 281 0.0 4.0 0.00 0.00 0.00 99 1015.6
20260508110728 53 38 2.0 5.0 0.00 0.00 0.00 99 1015.6
20260508110229 53 354 2.0 4.0 0.00 0.00 0.00 99 1015.6
20260508105729 52 328 2.0 5.0 0.00 0.00 0.00 99 1015.6
20260508105228 52 65 2.0 5.0 0.00 0.00 0.00 99 1015.6